TimeEST,TemperatureF,Dew PointF,Humidity,Sea Level PressureIn,VisibilityMPH,Wind Direction,Wind SpeedMPH,Gust SpeedMPH,PrecipitationIn,Events,Conditions,WindDirDegrees,DateUTC
12:53 AM,55.9,52.0,87,30.19,10.0,South,8.1,23.0,N/A,,Overcast,180,2012-11-13 05:53:00
1:53 AM,57.0,52.0,83,30.18,10.0,South,8.1,17.3,N/A,,Scattered Clouds,190,2012-11-13 06:53:00
2:38 AM,57.2,53.6,88,30.15,10.0,South,6.9,-,N/A,,Overcast,180,2012-11-13 07:38:00
2:53 AM,57.9,53.1,84,30.16,10.0,Variable,4.6,-,N/A,,Overcast,0,2012-11-13 07:53:00
3:19 AM,57.2,53.6,88,30.13,10.0,Variable,4.6,-,N/A,,Overcast,0,2012-11-13 08:19:00
3:53 AM,57.9,53.1,84,30.13,10.0,Variable,5.8,16.1,N/A,,Overcast,0,2012-11-13 08:53:00
4:53 AM,57.9,55.0,90,30.11,10.0,Variable,5.8,-,N/A,,Overcast,0,2012-11-13 09:53:00
5:39 AM,59.0,55.4,88,30.07,10.0,South,5.8,-,N/A,,Overcast,170,2012-11-13 10:39:00
5:53 AM,59.0,55.9,90,30.08,7.0,South,9.2,16.1,0.00,Rain,Light Rain,180,2012-11-13 10:53:00
6:24 AM,59.0,55.4,88,30.07,6.0,Variable,4.6,-,0.00,Rain,Light Rain,0,2012-11-13 11:24:00
6:37 AM,59.0,55.4,88,30.06,10.0,Variable,5.8,-,0.00,Rain,Light Rain,0,2012-11-13 11:37:00
6:53 AM,59.0,57.0,93,30.08,5.0,Variable,5.8,-,0.03,Rain,Rain,0,2012-11-13 11:53:00
7:40 AM,51.8,48.2,88,30.10,5.0,WNW,15.0,25.3,0.01,Rain,Light Rain,290,2012-11-13 12:40:00
7:51 AM,51.8,46.4,82,30.10,1.8,WNW,11.5,19.6,0.08,Rain,Heavy Rain,290,2012-11-13 12:51:00
7:53 AM,51.1,46.9,86,30.13,1.2,WNW,10.4,19.6,0.11,Rain,Heavy Rain,290,2012-11-13 12:53:00
8:07 AM,50.0,46.4,87,30.12,2.0,WNW,12.7,19.6,0.06,Rain,Rain,300,2012-11-13 13:07:00
8:20 AM,50.0,46.4,87,30.12,6.0,West,5.8,18.4,0.08,Rain,Light Rain,280,2012-11-13 13:20:00
8:43 AM,48.2,46.4,93,30.12,1.8,WNW,5.8,18.4,0.14,Rain,Heavy Rain,300,2012-11-13 13:43:00
8:53 AM,48.9,46.0,90,30.13,1.2,NW,5.8,-,0.19,Rain,Heavy Rain,310,2012-11-13 13:53:00
8:57 AM,48.2,46.4,93,30.11,2.0,NW,9.2,-,0.01,Rain,Light Rain,320,2012-11-13 13:57:00
9:02 AM,48.2,46.4,93,30.11,7.0,WNW,9.2,16.1,0.01,Rain,Light Rain,300,2012-11-13 14:02:00
9:51 AM,48.2,44.6,87,30.14,1.8,WNW,6.9,-,0.09,Rain,Heavy Rain,290,2012-11-13 14:51:00
9:53 AM,48.0,45.0,89,30.17,1.5,WNW,6.9,-,0.10,Rain,Heavy Rain,290,2012-11-13 14:53:00
10:04 AM,48.2,44.6,87,30.13,3.0,WNW,8.1,-,0.01,Rain,Light Rain,300,2012-11-13 15:04:00
10:53 AM,48.0,45.0,89,30.15,3.0,Calm,Calm,-,0.04,Rain,Rain,0,2012-11-13 15:53:00
11:53 AM,46.0,43.0,89,30.17,5.0,West,6.9,-,0.07,Rain,Light Rain,280,2012-11-13 16:53:00
12:53 PM,46.0,43.0,89,30.18,10.0,WNW,4.6,-,0.03,Rain,Light Rain,290,2012-11-13 17:53:00
1:12 PM,44.6,39.2,81,30.18,5.0,NW,15.0,23.0,0.02,Rain,Light Rain,310,2012-11-13 18:12:00
1:53 PM,41.0,37.0,86,30.20,7.0,NW,9.2,-,0.05,Rain,Light Rain,310,2012-11-13 18:53:00
2:07 PM,41.0,37.4,87,30.19,7.0,WNW,8.1,17.3,0.00,Rain,Light Rain,300,2012-11-13 19:07:00
2:53 PM,41.0,36.0,82,30.23,10.0,WNW,9.2,-,0.01,,Overcast,300,2012-11-13 19:53:00
3:53 PM,41.0,33.1,73,30.26,10.0,NW,12.7,20.7,N/A,,Overcast,310,2012-11-13 20:53:00
4:53 PM,39.0,30.9,73,30.28,10.0,WNW,8.1,16.1,N/A,,Overcast,300,2012-11-13 21:53:00
5:53 PM,39.0,30.9,73,30.32,10.0,WNW,10.4,18.4,N/A,,Mostly Cloudy,300,2012-11-13 22:53:00
6:53 PM,37.9,30.0,73,30.34,10.0,WNW,8.1,-,N/A,,Clear,300,2012-11-13 23:53:00
7:53 PM,37.0,28.0,70,30.38,10.0,Calm,Calm,-,N/A,,Clear,0,2012-11-14 00:53:00
8:53 PM,35.1,28.0,76,30.40,10.0,WNW,4.6,-,N/A,,Clear,290,2012-11-14 01:53:00
9:53 PM,34.0,27.0,75,30.42,10.0,NW,4.6,-,N/A,,Clear,320,2012-11-14 02:53:00
10:53 PM,33.1,27.0,78,30.43,10.0,WNW,4.6,-,N/A,,Clear,300,2012-11-14 03:53:00
11:53 PM,30.9,26.1,82,30.44,10.0,WNW,4.6,-,N/A,,Clear,300,2012-11-14 04:53:00